Regional Weather Roundup
Issued by NWS Cleveland, OH

Home | Current Version | Previous Version | Graphics & Text | Print | Product List | Glossary On
Versions: 1 2 3 4 5 6 7 8 9 10 11 12 13 14 15 16 17 18 19 20 21 22 23 24 25 26 27 28 29 30 31 32 33 34 35 36 37 38 39 40 41 42 43 44 45 46 47 48 49 50
000
ASUS41 KCLE 270902
RWRCLE
OHIO REGIONAL WEATHER ROUNDUP
NATIONAL WEATHER SERVICE CLEVELAND, OH
500 AM EDT FRI MAR 27 2015

NOTE: "FAIR" INDICATES FEW OR NO CLOUDS BELOW 12,000 FEET WITH NO
SIGNIFICANT WEATHER AND/OR OBSTRUCTIONS TO VISIBILITY.

OHZ001>008-015>018-024>027-034-035-043-044-271000-
   NORTHWEST OHIO

CITY           SKY/WX    TMP DP  RH WIND       PRES   REMARKS
DEFIANCE       CLOUDY    32  21  64 NW10      29.98S WCI  24
FINDLAY        CLOUDY    33  23  66 NW8       29.93F WCI  26
TOLEDO EXPRESS CLOUDY    31  20  63 N8        29.96S WCI  23
TOLEDO EXEC    CLOUDY    32  18  56 N15       29.97S WCI  22
LIMA           CLOUDY    33  24  69 NW12      29.94F WCI  24
$$

OHZ009>014-019>023-028>033-038-089-271000-
   NORTHEAST OHIO

CITY           SKY/WX    TMP DP  RH WIND       PRES   REMARKS
CLE-HOPKINS    FLURRIES  32  27  81 N12       29.94R WCI  23
CLE-LAKEFRONT  CLOUDY    32  28  85 N14       29.91S WCI  22
CUY CO. ARPT   NOT AVBL
LORAIN-ELYRIA  FLURRIES  32  26  78 N10       29.91F WCI  24
ASHTABULA      CLOUDY    31  26  82 NW8       29.88S WCI  23
AKRON-CANTON   CLOUDY    33  26  75 NW7       29.87F WCI  27
WOOSTER        CLOUDY    32  26  78 NW12      29.88F WCI  23
MANSFIELD      FAIR      29  22  75 NW8       29.89S WCI  21
YOUNGSTOWN     CLOUDY    33  29  85 NW6       29.85S WCI  28
$$

OHZ042-051>053-060>062-070>072-077>081-271000-
  SOUTHWEST OHIO

CITY           SKY/WX    TMP DP  RH WIND       PRES   REMARKS
CINC-COVINGTON MOCLDY    33  24  69 N8        29.95F WCI  26
CINC-LUNKEN    CLEAR     32  25  75 N7        29.97F WCI  26
HAMILTON       CLEAR     30  26  85 NW3       29.97F
DAYTON         FAIR      32  25  75 NW10      29.95F WCI  24
WRIGHT-PAT AFB PTCLDY    32  24  72 NW10      29.95S WCI  23
DAYTON GENERAL CLEAR     32  22  66 N6        29.94F WCI  26
WILMINGTON     CLEAR     30  22  72 NW6       29.93F WCI  24
$$

OHZ036-037-039>041-045>050-054>059-063>069-073>076-082>088-271000-
  CENTRAL AND SOUTHEAST OHIO

CITY           SKY/WX    TMP DP  RH WIND       PRES   REMARKS
COLUMBUS       CLEAR     29  22  75 NW5       29.92F WCI  24
OSU AIRPORT    CLEAR     28  21  75 NW6       29.92F WCI  22
BOLTON FIELD   CLEAR    N/A N/A N/A W3        29.93F
RICKENBACK AFB NOT AVBL
NEWARK         CLEAR     30  22  72 NW5       29.91F WCI  25
MARION         FAIR      30  23  75 NW8       29.92F WCI  22
LANCASTER      CLEAR     30  23  75 W3        29.92F
ZANESVILLE     CLEAR     31  24  75 NW7       29.89F WCI  24
NEW PHILLY     CLOUDY    36  26  67 NW6       29.89F
$$


USA.gov is the U.S. government's official web portal to all federal, state and local government web resources and services.